Weather in Uyemskiy

Russia / Arkhangel'skaya Oblast'     64°28′33″N   40°51′44″E
temp.,
°C
wind,
m/s
gust,
m/s
humid.,
%
clouds,
%
prec.,
mm/h
press.,
hPa
HPBL,
m
9 may, sun
sun900:00+9sse41175100 0.0 1007487
03:00+8se41185100 0.3 10071188
06:00+7sse3892100 1.4 1005624
09:00+8sse41087100 2.1 10051331
12:00+8wsw2593100 2.4 1005470
15:00+4w4793100 4.3 1007700
18:00+3wnw41186100 0.1 1010679
21:00+3wsw238512 0.1 101251
10 may, mon
mon1000:00+1wsw28895 0.0 1014164
03:00+1sw28861 0.0 1016160
06:00+4sw387813 0.0 1018248
09:00+9sw47565 0.0 1019845
12:00+12sw584880 0.1 10201965
15:00+14wsw5829100 0.2 10212736
18:00+13ssw41044100 0.0 10212145
21:00+11ssw41052100 0.0 1022770
11 may, tue
tue1100:00+9s41173100 0.3 10201045
03:00+8sw41190100 1.4 1020822
06:00+9ssw41193100 1.3 1020634
09:00+10sw41090100 1.6 1020633
12:00+11sw3989100 0.1 1022727
15:00+15sw4973100 0.1 10231083
18:00+18sw4967100 0.0 10211110
21:00+15sw4117430 0.0 1022390
12 may, wed
wed1200:00+13sw4127435 0.0 1023412
03:00+12sw41378100 0.0 1023385
06:00+13sw41274100 0.0 1024469
09:00+18wsw4857100 0.0 1025790
12:00+22w484649 0.0 10251705
15:00+22wnw46435 0.0 10261652
18:00+20nnw33530 0.0 1026418
21:00+15ne22795 0.0 102739
13 may, thu
thu1300:00+13e24916 0.0 102889
03:00+11e27965 0.0 1028148
06:00+13ese36827 0.0 1027249
09:00+19se34605 0.0 1026601
12:00+24s24420 0.0 10241656
15:00+25s34360 0.0 10222126
18:00+25ssw343810 0.0 10212089
21:00+19ssw22570 0.0 102029